KA1WBH Weather Reports


Display with metric or nautical units.
time (UTC)temp
F
wind
direction
speed
MPH
gust
MPH
rain 1hr
in
rain 24hr
in
rain mn
in
humidity
%
barometer
mb
20170820034921 73 252 4.0 14.0 0.00 0.21 0.20 89 1011.4
20170820033921 73 252 4.0 14.0 0.00 0.43 0.20 90 1011.2
20170820032921 73 248 6.0 12.0 0.00 0.45 0.20 89 1011.2
20170820031921 73 260 6.0 15.0 0.00 0.52 0.20 89 1011.1
20170820030921 73 237 1.0 13.0 0.00 0.61 0.20 89 1011.1
20170820025921 73 260 2.0 15.0 0.00 0.62 0.20 89 1011.2
20170820024921 73 261 3.0 13.0 0.00 0.62 0.20 89 1011.2
20170820023921 73 252 5.0 13.0 0.00 0.64 0.20 89 1011.0
20170820022921 73 254 2.0 15.0 0.00 0.64 0.20 89 1011.0
20170820021921 73 248 1.0 12.0 0.00 0.68 0.20 88 1010.9
20170820020921 73 245 0.0 10.0 0.00 0.72 0.20 88 1010.8
20170820015921 73 223 0.0 8.0 0.00 0.73 0.20 88 1010.5
20170820014921 73 237 5.0 9.0 0.00 0.74 0.20 88 1010.5
20170820013921 73 250 0.0 10.0 0.00 0.74 0.20 89 1010.3
20170820012921 73 260 3.0 10.0 0.00 0.74 0.20 89 1010.4
20170820011921 73 250 0.0 9.0 0.00 0.74 0.20 89 1010.4
20170820010921 73 250 0.0 10.0 0.00 0.74 0.20 89 1010.4
20170820005921 73 253 0.0 9.0 0.00 0.74 0.20 89 1010.3
20170820004921 73 243 2.0 13.0 0.00 0.74 0.20 89 1010.2
20170820003921 73 240 0.0 15.0 0.00 0.77 0.20 90 1010.1
20170820002921 73 238 0.0 12.0 0.00 0.80 0.20 91 1010.0
20170820001921 73 258 11.0 12.0 0.00 0.84 0.20 90 1009.8
20170820000921 73 254 0.0 20.0 0.00 0.86 0.20 90 1009.8
20170819235921 73 240 7.0 13.0 0.00 0.86 0.20 90 1009.9
20170819234921 73 241 4.0 12.0 0.00 0.86 0.20 90 1009.8
20170819233921 74 234 4.0 10.0 0.00 0.86 0.20 89 1009.5
20170819232921 74 221 1.0 11.0 0.00 0.87 0.20 88 1009.4
20170819231921 74 237 0.0 13.0 0.00 0.87 0.20 87 1009.4
20170819230921 75 236 5.0 15.0 0.00 0.95 0.20 86 1009.3
20170819225921 75 228 7.0 10.0 0.00 0.98 0.20 85 1009.0
20170819224921 75 258 0.0 15.0 0.00 1.10 0.20 85 1008.9
20170819223921 76 278 0.0 16.0 0.00 1.29 0.20 84 1009.0
20170819222921 76 243 0.0 16.0 0.00 1.32 0.20 84 1008.9
20170819221921 76 238 0.0 18.0 0.00 1.32 0.20 84 1008.9
20170819220921 76 244 0.0 16.0 0.00 1.32 0.20 84 1008.9
20170819215921 77 256 1.0 19.0 0.00 1.32 0.20 84 1008.9
20170819214921 77 222 4.0 15.0 0.00 1.32 0.20 83 1008.9
20170819213921 78 251 4.0 15.0 0.00 1.32 0.20 82 1009.0
20170819212921 77 243 15.0 19.0 0.00 1.32 0.20 83 1009.0
20170819211921 77 243 9.0 15.0 0.00 1.32 0.20 84 1009.0
20170819210921 77 243 5.0 17.0 0.00 1.35 0.20 84 1008.8
20170819205921 77 233 12.0 24.0 0.00 1.35 0.20 85 1008.9
20170819204921 76 239 6.0 19.0 0.00 1.35 0.20 87 1008.8
20170819203921 76 237 0.0 16.0 0.00 1.35 0.20 88 1008.9
20170819202921 76 227 1.0 14.0 0.00 1.49 0.20 89 1008.9
20170819201921 76 236 6.0 17.0 0.00 1.54 0.20 89 1009.0
20170819200921 76 216 7.0 20.0 0.00 1.54 0.20 89 1009.1
20170819195921 76 252 1.0 17.0 0.00 1.54 0.20 90 1009.1
20170819194921 76 237 2.0 17.0 0.00 1.54 0.20 89 1009.0
20170819193920 76 221 2.0 16.0 0.00 1.54 0.20 89 1009.0
20170819192921 76 214 11.0 16.0 0.00 1.54 0.20 89 1008.9
20170819191921 76 236 5.0 19.0 0.00 1.54 0.20 90 1009.0
20170819190920 76 235 13.0 19.0 0.00 1.54 0.20 90 1008.9
20170819185921 76 269 6.0 18.0 0.00 1.54 0.20 89 1008.9
20170819184921 76 213 1.0 16.0 0.00 1.54 0.20 89 1009.0
20170819183920 77 238 12.0 21.0 0.00 1.54 0.20 89 1009.0
20170819182921 77 216 17.0 17.0 0.00 1.54 0.20 90 1008.9
20170819181921 77 216 5.0 14.0 0.00 1.54 0.20 89 1008.9
20170819180921 77 221 4.0 11.0 0.00 1.54 0.20 89 1009.1
20170819175920 78 185 2.0 12.0 0.00 1.54 0.20 89 1009.0
20170819174920 78 229 1.0 11.0 0.00 1.54 0.20 90 1009.1
20170819173920 78 213 5.0 14.0 0.00 1.54 0.20 90 1009.2
20170819172920 78 202 1.0 10.0 0.00 1.54 0.20 89 1009.2
20170819171920 78 162 0.0 5.0 0.00 1.54 0.20 90 1009.2
20170819170920 79 216 0.0 7.0 0.00 1.54 0.20 88 1009.4
20170819165921 79 210 0.0 3.0 0.00 1.54 0.20 88 1009.4
20170819164920 79 178 0.0 6.0 0.00 1.54 0.20 89 1009.5
20170819163920 78 191 0.0 4.0 0.00 1.54 0.20 91 1009.5
20170819162920 78 214 0.0 6.0 0.00 1.54 0.20 90 1009.5
20170819161920 78 166 0.0 12.0 0.00 1.54 0.20 92 1009.7
20170819160920 77 202 0.0 3.0 0.00 1.54 0.20 93 1009.6
20170819155920 76 220 0.0 6.0 0.00 1.54 0.20 93 1009.7
20170819154920 77 205 0.0 7.0 0.00 1.54 0.20 94 1009.6
20170819153920 76 209 0.0 3.0 0.00 1.54 0.20 96 1009.5
20170819152921 76 194 0.0 3.0 0.00 1.54 0.20 97 1009.5
20170819151921 76 198 0.0 9.0 0.00 1.54 0.20 98 1009.5
20170819150920 76 211 0.0 4.0 0.00 1.54 0.20 99 1009.5
20170819145920 75 239 3.0 3.0 0.00 1.54 0.20 99 1009.5
20170819144920 76 205 0.0 3.0 0.00 1.54 0.20 99 1009.5
20170819143920 75 221 0.0 1.0 0.00 1.54 0.20 100 1009.4
20170819142920 75 221 0.0 3.0 0.00 1.54 0.20 100 1009.6
20170819141920 74 221 0.0 0.0 0.00 1.54 0.20 100 1009.4
20170819140920 73 221 0.0 1.0 0.00 1.54 0.20 100 1009.3
20170819135920 73 223 0.0 1.0 0.00 1.54 0.20 100 1009.2
20170819134920 73 223 0.0 1.0 0.00 1.54 0.20 100 1009.2
20170819133920 72 223 0.0 4.0 0.00 1.54 0.20 100 1009.2
20170819132920 72 223 0.0 2.0 0.00 1.54 0.20 100 1009.1
20170819131920 71 223 0.0 6.0 0.00 1.54 0.20 100 1009.2
20170819130920 71 225 5.0 7.0 0.00 1.54 0.20 99 1009.1
20170819125920 71 229 4.0 8.0 0.00 1.54 0.20 99 1009.1
20170819124920 71 262 0.0 10.0 0.00 1.54 0.20 99 1009.2
20170819123920 71 237 0.0 9.0 0.00 1.54 0.20 99 1009.0
20170819122920 71 211 0.0 4.0 0.00 1.54 0.20 99 1009.0
20170819121920 71 190 0.0 2.0 0.00 1.54 0.20 99 1009.0
20170819120920 71 190 0.0 4.0 0.00 1.54 0.20 99 1008.9
20170819115920 72 183 0.0 1.0 0.00 1.54 0.20 99 1008.8
20170819114920 72 183 0.0 1.0 0.00 1.54 0.20 99 1008.6
20170819113920 72 245 0.0 5.0 0.00 1.54 0.20 99 1008.4
20170819112920 72 244 0.0 1.0 0.00 1.54 0.20 99 1008.2
20170819111920 72 243 0.0 6.0 0.00 1.54 0.20 99 1008.0
20170819110920 71 243 0.0 4.0 0.00 1.54 0.20 99 1008.0
20170819105920 71 245 0.0 4.0 0.00 1.54 0.20 100 1007.9
20170819104920 71 239 0.0 7.0 0.00 1.54 0.20 99 1008.1
20170819103920 71 256 0.0 7.0 0.00 1.54 0.20 99 1008.0
20170819102920 71 231 2.0 10.0 0.00 1.54 0.20 99 1008.0
20170819101920 71 254 0.0 7.0 0.00 1.54 0.20 99 1008.1
20170819100920 71 252 0.0 13.0 0.00 1.54 0.20 99 1008.0
20170819095920 71 244 2.0 12.0 0.00 1.54 0.20 99 1008.0
20170819094920 71 200 0.0 14.0 0.00 1.54 0.20 99 1007.9
20170819093920 71 239 0.0 11.0 0.00 1.54 0.20 99 1007.8
20170819092920 71 246 6.0 7.0 0.00 1.54 0.20 99 1008.0
20170819091920 71 265 1.0 9.0 0.00 1.54 0.20 99 1007.7
20170819090920 71 245 4.0 9.0 0.00 1.54 0.20 99 1007.7
20170819085920 71 239 4.0 10.0 0.00 1.54 0.20 99 1007.6
20170819084920 72 232 2.0 10.0 0.00 1.54 0.20 99 1007.6
20170819083920 72 235 3.0 6.0 0.00 1.54 0.20 99 1007.4
20170819082920 72 231 4.0 7.0 0.00 1.54 0.20 99 1007.3
20170819081920 72 233 0.0 9.0 0.00 1.54 0.20 99 1007.1
20170819080920 72 247 0.0 9.0 0.01 1.54 0.20 99 1007.0
20170819075920 72 240 0.0 9.0 0.01 1.54 0.20 99 1007.2
20170819074920 73 213 0.0 11.0 0.01 1.54 0.20 99 1007.3
20170819073920 73 252 1.0 12.0 0.01 1.54 0.20 99 1007.4
20170819072920 73 262 4.0 13.0 0.02 1.54 0.20 99 1007.5
20170819071920 73 239 9.0 14.0 0.02 1.54 0.20 99 1007.6
20170819070920 73 240 10.0 15.0 0.01 1.53 0.19 99 1007.7
20170819065920 73 261 7.0 14.0 0.01 1.53 0.19 99 1007.7
20170819064920 73 260 2.0 13.0 0.01 1.53 0.19 99 1007.7
20170819063920 72 248 6.0 14.0 0.01 1.53 0.19 99 1007.7
20170819062920 72 260 7.0 16.0 0.00 1.52 0.18 99 1007.7
20170819061920 72 254 8.0 15.0 0.00 1.52 0.18 99 1007.7
20170819060920 72 251 1.0 17.0 0.01 1.52 0.18 99 1007.7
20170819055920 72 266 7.0 17.0 0.01 1.52 0.18 99 1007.7
20170819054920 72 243 15.0 23.0 0.01 1.52 0.18 99 1007.9
20170819053920 73 232 15.0 25.0 0.02 1.52 0.18 99 1007.9
20170819052920 73 209 1.0 24.0 0.02 1.52 0.18 99 1008.1
20170819051920 73 255 15.0 25.0 0.02 1.52 0.18 99 1008.3
20170819050920 72 237 9.0 22.0 0.10 1.51 0.17 99 1008.3
20170819045920 72 248 4.0 23.0 0.17 1.51 0.17 99 1008.5
20170819044920 72 239 4.0 24.0 0.18 1.51 0.17 99 1008.5
20170819043920 72 228 2.0 28.0 0.39 1.50 0.16 99 1008.4
20170819042920 72 193 6.0 23.0 0.41 1.50 0.16 99 1008.4
20170819041920 72 201 1.0 21.0 0.48 1.50 0.16 99 1008.5
20170819040920 72 218 0.0 18.0 0.48 1.41 0.07 99 1009.0
20170819035920 72 198 3.0 21.0 0.42 1.34 0.00 99 1008.9